Powrót do katalogu

TIANMU-1 QIXIANG XINGZOU 02

AktywnyPogodaSSO
NORAD 55137·PAYLOAD·🇨🇳 China
Ta nazwa satelity nie została jeszcze potwierdzona przez oficjalne źródła.

Wystrzelony Jan 9, 2023 z Jiuquan Satellite Launch Center

Loading…

Następne Przeloty (najbliższe 24 godziny)

TLE

ŚwieżeSource: Space-Track

Epoka: Sep 14, 2026, 15:25 UTC

1 55137U 23003E   26257.64238975  .00021180  00000-0  27488-3 0  9999
2 55137  97.1355 333.1792 0004605 130.7346 229.4312 15.58844340206182

Śledź TIANMU-1 QIXIANG XINGZOU 02 w czasie rzeczywistym z AllMySat

Download on the App Store